User: anonymous   Login
Location: Cape Cod Imaging Station
(41.7417°N, 70.1583°W)
Time: 02:49:42
(UTC-04:00)
Language:

Cosmos 1508 Rocket - Orbit

View from above orbital plane
View from above orbital plane
View from above satellite
View from above satellite

Ground track
Ground track

The orbit data is extracted from the following two-line orbital elements,

1 14484U 83111B   15117.49940661  .00119279  30657-5  61644-3 0  9998
2 14484 082.8248 017.8767 0100493 199.8337 213.7840 15.73735587621159
Epoch (UTC): 27 April 2015 11:59:08
Eccentricity: 0.0100493
inclination: 82.8248°
perigee height: 280 km
apogee height: 416 km
right ascension of ascending node: 17.8767°
argument of perigee: 199.8337°
revolutions per day: 15.73735587
mean anomaly at epoch: 213.7840°
orbit number at epoch: 62115

The dashed part of the orbit path shows where the satellite is in the earth's shadow,  

DLR